Zurück zum Katalog

DELTA 2 R/B(1)

AktivLEO
NORAD 25510·ROCKET BODY·🇺🇸 United States

Gestartet Oct 24, 1998 von Cape Canaveral Space Force Station

Loading…

Nächste Überflüge (nächste 24 Stunden)

TLE

AktuellSource: Space-Track

Epoche: Sep 14, 2026, 10:06 UTC

1 25510U 98061C   26257.42106429  .00000511  00000-0  70136-4 0  9995
2 25510  31.4335 157.2279 0304285 232.9256 124.3187 14.44126874464548

Verfolge DELTA 2 R/B(1) in Echtzeit mit AllMySat

Download on the App Store